sat.trackr.live / text

‹ back to catalog

STARLINK-33688

NORAD 63483 · 2025-070Z

PAYLOAD ACTIVE UNKNOWN

§ Identity

Operator
Country
US
Launch date
2025-04-06
Launch site
AFETR
Launch vehicle
Mass (kg)
RCS (m²)

Purposes: comms

External: N2YO · Heavens-Above · Gunter

§ Orbital elements

Epoch: 2026-09-20T15:59:03.159456Z

Period
94.27 min
Inclination
43.0030°
Eccentricity
0.0002507
Mean motion
15.27599936 rev/d
Perigee alt
481.3 km
Apogee alt
484.7 km
Semi-major
6,861.1 km
B*
6.5752e-4
RAAN
238.8223°
Arg perigee
264.1524°
Mean anomaly
95.9042°
Rev number
8,279

§ Raw data

STARLINK-336881 63483U 25070Z   26263.66600879  .00017887  00000+0  65752-3 0  99972 63483  43.0030 238.8223 0002507 264.1524  95.9042 15.27599936 82793

JSON: /api/v1/satellites/63483 · /tle

For live sub-satellite position, see the globe view (requires WebGL).

§ Visibility from observer

Set your observer location to see the next 7 days of passes ≥ 10°. The values pass through the URL so the page stays shareable.

No JS? Fill the form by hand. The geolocation button needs JavaScript.